Location: Corralito
(10.2667°N, 66.9500°W)
Time: 10:02:02
(UTC+00:00)

GPS 2-15 Rocket1 - Pass Details

Date: 12 December 2023
Orbit: 617 x 666 km, 19.8° (Epoch: 02 March)

Event Time Altitude Azimuth Distance (km) Brightness Sun altitude
Rises 23:25:55 0° 249° (WSW) 2,969 8.3 -18.7°
Reaches altitude 10° 23:28:19 10° 248° (WSW) 2,051 7.0 -19.2°
Maximum altitude 23:33:09 81° 162° (SSE) 654 3.1 -20.4°
Enters shadow 23:34:21 50° 82° (E) 813 3.2 -20.6°
